SB KEPS @ AMSAT $ORB14149.O Orbital Elements 14149.OSCAR
HR AMSAT ORBITAL ELEMENTS FOR OSCAR SATELLITES FROM WA5QGD FORT WORTH,TX May 29, 2014 BID: ORB14149.O TO ALL RADIO AMATEURS BT
Satellite: AO-07 Catalog number: 07530 Epoch time: 14149.85935569 Element set: 976 Inclination: 101.4700 deg RA of node: 132.2952 deg Eccentricity: 0.0011689 Arg of perigee: 333.1073 deg Mean anomaly: 084.2925 deg Mean motion: 12.53605123 rev/day Decay rate: -2.1e-07 rev/day^2 Epoch rev: 80922 Checksum: 289
Satellite: FO-29 Catalog number: 24278 Epoch time: 14149.73520632 Element set: 383 Inclination: 098.5124 deg RA of node: 166.1381 deg Eccentricity: 0.0350023 Arg of perigee: 345.6994 deg Mean anomaly: 073.5897 deg Mean motion: 13.53024431 rev/day Decay rate: -6.5e-07 rev/day^2 Epoch rev: 87817 Checksum: 322
Satellite: SO-33 Catalog number: 25509 Epoch time: 14149.70455046 Element set: 760 Inclination: 031.4324 deg RA of node: 265.1096 deg Eccentricity: 0.0349506 Arg of perigee: 312.4300 deg Mean anomaly: 155.2993 deg Mean motion: 14.29543385 rev/day Decay rate: 2.07e-06 rev/day^2 Epoch rev: 81450 Checksum: 291
Satellite: RS-22 Catalog number: 27939 Epoch time: 14149.58946389 Element set: 529 Inclination: 097.8077 deg RA of node: 324.6603 deg Eccentricity: 0.0013443 Arg of perigee: 161.7695 deg Mean anomaly: 198.3982 deg Mean motion: 14.65190234 rev/day Decay rate: 3.03e-06 rev/day^2 Epoch rev: 57000 Checksum: 336
Satellite: VO-52 Catalog number: 28650 Epoch time: 14149.62950844 Element set: 750 Inclination: 097.5596 deg RA of node: 155.5249 deg Eccentricity: 0.0024507 Arg of perigee: 215.5623 deg Mean anomaly: 144.3961 deg Mean motion: 14.85446964 rev/day Decay rate: 7.24e-06 rev/day^2 Epoch rev: 49047 Checksum: 337
Satellite: HO-68 Catalog number: 36122 Epoch time: 14149.71651817 Element set: 631 Inclination: 100.2493 deg RA of node: 202.1545 deg Eccentricity: 0.0007275 Arg of perigee: 280.5366 deg Mean anomaly: 079.4929 deg Mean motion: 13.16315740 rev/day Decay rate: -4.3e-07 rev/day^2 Epoch rev: 21400 Checksum: 279
Satellite: AO-73 Catalog number: 39444 Epoch time: 14149.74508743 Element set: 154 Inclination: 097.7719 deg RA of node: 221.0216 deg Eccentricity: 0.0061205 Arg of perigee: 303.7548 deg Mean anomaly: 055.7763 deg Mean motion: 14.78265041 rev/day Decay rate: 1.288e-05 rev/day^2 Epoch rev: 2674 Checksum: 317
/EX SB KEPS @ AMSAT $ORB14149.D Orbital Elements 14149.MICROS
HR AMSAT ORBITAL ELEMENTS FOR THE MICROSATS FROM WA5QGD FORT WORTH,TX May 29, 2014 BID: ORB14149.D TO ALL RADIO AMATEURS BT
Satellite: UO-11 Catalog number: 14781 Epoch time: 14148.78412080 Element set: 503 Inclination: 097.8536 deg RA of node: 209.2881 deg Eccentricity: 0.0007716 Arg of perigee: 236.6428 deg Mean anomaly: 123.4047 deg Mean motion: 14.81585519 rev/day Decay rate: 3.39e-06 rev/day^2 Epoch rev: 62509 Checksum: 314
Satellite: AO-16 Catalog number: 20439 Epoch time: 14149.79755907 Element set: 33 Inclination: 098.5060 deg RA of node: 087.4803 deg Eccentricity: 0.0010474 Arg of perigee: 207.5974 deg Mean anomaly: 205.3445 deg Mean motion: 14.32354185 rev/day Decay rate: 6.9e-07 rev/day^2 Epoch rev: 27185 Checksum: 315
Satellite: LO-19 Catalog number: 20442 Epoch time: 14148.79796412 Element set: 970 Inclination: 098.4769 deg RA of node: 087.2132 deg Eccentricity: 0.0011591 Arg of perigee: 200.1086 deg Mean anomaly: 159.9643 deg Mean motion: 14.32556747 rev/day Decay rate: 7.6e-07 rev/day^2 Epoch rev: 27190 Checksum: 325
Satellite: AO-27 Catalog number: 22825 Epoch time: 14148.94205370 Element set: 677 Inclination: 098.6607 deg RA of node: 095.1265 deg Eccentricity: 0.0008152 Arg of perigee: 002.9533 deg Mean anomaly: 039.4339 deg Mean motion: 14.29717735 rev/day Decay rate: 6.9e-07 rev/day^2 Epoch rev: 7803 Checksum: 319
Satellite: IO-26 Catalog number: 22826 Epoch time: 14148.79326056 Element set: 433 Inclination: 098.6549 deg RA of node: 095.2010 deg Eccentricity: 0.0008514 Arg of perigee: 355.4158 deg Mean anomaly: 004.6944 deg Mean motion: 14.30017804 rev/day Decay rate: 7.5e-07 rev/day^2 Epoch rev: 7814 Checksum: 299
Satellite: GO-32 Catalog number: 25397 Epoch time: 14149.81503024 Element set: 357 Inclination: 098.4668 deg RA of node: 108.4898 deg Eccentricity: 0.0001669 Arg of perigee: 053.0700 deg Mean anomaly: 008.5530 deg Mean motion: 14.23443288 rev/day Decay rate: 3.0e-07 rev/day^2 Epoch rev: 82525 Checksum: 300
Satellite: NO-44 Catalog number: 26931 Epoch time: 14148.95270714 Element set: 612 Inclination: 067.0525 deg RA of node: 088.0555 deg Eccentricity: 0.0006224 Arg of perigee: 282.9775 deg Mean anomaly: 077.0631 deg Mean motion: 14.30114491 rev/day Decay rate: 5.1e-07 rev/day^2 Epoch rev: 66085 Checksum: 295
Satellite: SO-50 Catalog number: 27607 Epoch time: 14149.76341692 Element set: 406 Inclination: 064.5574 deg RA of node: 288.5060 deg Eccentricity: 0.0045299 Arg of perigee: 016.5272 deg Mean anomaly: 343.7293 deg Mean motion: 14.73757953 rev/day Decay rate: 2.65e-06 rev/day^2 Epoch rev: 61476 Checksum: 335
Satellite: CO-55 Catalog number: 27844 Epoch time: 14148.98457802 Element set: 934 Inclination: 098.6976 deg RA of node: 158.0336 deg Eccentricity: 0.0008914 Arg of perigee: 337.4569 deg Mean anomaly: 074.6954 deg Mean motion: 14.21501857 rev/day Decay rate: 1.64e-06 rev/day^2 Epoch rev: 56585 Checksum: 361
Satellite: CO-57 Catalog number: 27848 Epoch time: 14148.98525707 Element set: 875 Inclination: 098.7070 deg RA of node: 157.7346 deg Eccentricity: 0.0008923 Arg of perigee: 344.4241 deg Mean anomaly: 068.1008 deg Mean motion: 14.21189326 rev/day Decay rate: 1.38e-06 rev/day^2 Epoch rev: 56577 Checksum: 342
Satellite: AO-51 Catalog number: 28375 Epoch time: 14149.81061245 Element set: 851 Inclination: 098.2489 deg RA of node: 097.3465 deg Eccentricity: 0.0083934 Arg of perigee: 048.7256 deg Mean anomaly: 312.1123 deg Mean motion: 14.41381506 rev/day Decay rate: 1.41e-06 rev/day^2 Epoch rev: 52126 Checksum: 302
Satellite: CP3 Catalog number: 31129 Epoch time: 14149.53471750 Element set: 758 Inclination: 097.9323 deg RA of node: 128.4637 deg Eccentricity: 0.0099822 Arg of perigee: 069.5344 deg Mean anomaly: 055.5591 deg Mean motion: 14.54659100 rev/day Decay rate: 6.49e-06 rev/day^2 Epoch rev: 37732 Checksum: 330
Satellite: CO-65 Catalog number: 32785 Epoch time: 14149.16747852 Element set: 961 Inclination: 097.7009 deg RA of node: 201.0881 deg Eccentricity: 0.0012603 Arg of perigee: 247.2672 deg Mean anomaly: 180.9127 deg Mean motion: 14.85261562 rev/day Decay rate: 8.52e-06 rev/day^2 Epoch rev: 32920 Checksum: 314
Satellite: PRISM Catalog number: 33493 Epoch time: 14149.73835395 Element set: 960 Inclination: 098.2476 deg RA of node: 324.6087 deg Eccentricity: 0.0018708 Arg of perigee: 140.9363 deg Mean anomaly: 219.3168 deg Mean motion: 14.89352196 rev/day Decay rate: 3.401e-05 rev/day^2 Epoch rev: 28943 Checksum: 335
Satellite: SOHLA-1 Catalog number: 33496 Epoch time: 14149.82998446 Element set: 362 Inclination: 098.1680 deg RA of node: 270.7185 deg Eccentricity: 0.0005063 Arg of perigee: 304.8394 deg Mean anomaly: 172.9514 deg Mean motion: 14.70798973 rev/day Decay rate: 2.01e-06 rev/day^2 Epoch rev: 28681 Checksum: 335
Satellite: TISAT-1 Catalog number: 36799 Epoch time: 14149.76380254 Element set: 221 Inclination: 098.0164 deg RA of node: 241.6206 deg Eccentricity: 0.0014493 Arg of perigee: 027.6225 deg Mean anomaly: 332.5745 deg Mean motion: 14.85606546 rev/day Decay rate: 2.088e-05 rev/day^2 Epoch rev: 20998 Checksum: 317
Satellite: STUDSAT Catalog number: 36801 Epoch time: 14149.82324980 Element set: 830 Inclination: 098.0349 deg RA of node: 249.3661 deg Eccentricity: 0.0007929 Arg of perigee: 000.0477 deg Mean anomaly: 114.4072 deg Mean motion: 14.96426896 rev/day Decay rate: 4.607e-05 rev/day^2 Epoch rev: 21038 Checksum: 306
Satellite: ALMASAT-1 Catalog number: 38078 Epoch time: 14149.79959209 Element set: 38 Inclination: 069.4695 deg RA of node: 103.6072 deg Eccentricity: 0.0597246 Arg of perigee: 056.2310 deg Mean anomaly: 020.9907 deg Mean motion: 14.48625466 rev/day Decay rate: 3.0366e-04 rev/day^2 Epoch rev: 11897 Checksum: 340
Satellite: XATCOBEO Catalog number: 38082 Epoch time: 14149.76704622 Element set: 262 Inclination: 069.4425 deg RA of node: 008.0187 deg Eccentricity: 0.0223570 Arg of perigee: 003.3951 deg Mean anomaly: 086.9363 deg Mean motion: 15.49199842 rev/day Decay rate: 2.00650e-03 rev/day^2 Epoch rev: 12153 Checksum: 296
Satellite: CUBEBUG-1 Catalog number: 39153 Epoch time: 14149.73630808 Element set: 161 Inclination: 098.0438 deg RA of node: 230.0756 deg Eccentricity: 0.0019078 Arg of perigee: 053.3540 deg Mean anomaly: 306.9424 deg Mean motion: 14.77685659 rev/day Decay rate: 1.212e-05 rev/day^2 Epoch rev: 5883 Checksum: 309
Satellite: ESTCUBE-1 Catalog number: 39161 Epoch time: 14149.77594301 Element set: 143 Inclination: 098.0979 deg RA of node: 230.8081 deg Eccentricity: 0.0011674 Arg of perigee: 093.3603 deg Mean anomaly: 266.8916 deg Mean motion: 14.69972437 rev/day Decay rate: 9.58e-06 rev/day^2 Epoch rev: 5689 Checksum: 341
/EX SB KEPS @ AMSAT $ORB14149.W Orbital Elements 14149.WEATHER
HR AMSAT ORBITAL ELEMENTS FOR WEATHER SATELLITES FROM WA5QGD FORT WORTH,TX May 29, 2014 BID: ORB14149.W TO ALL RADIO AMATEURS BT
Satellite: MET-2/21 Catalog number: 22782 Epoch time: 14149.71613941 Element set: 67 Inclination: 082.5481 deg RA of node: 187.9606 deg Eccentricity: 0.0020985 Arg of perigee: 318.9169 deg Mean anomaly: 171.4396 deg Mean motion: 13.83736494 rev/day Decay rate: 1.4e-07 rev/day^2 Epoch rev: 4756 Checksum: 333
Satellite: OKEAN-4 Catalog number: 23317 Epoch time: 14149.82594833 Element set: 545 Inclination: 082.5394 deg RA of node: 085.1468 deg Eccentricity: 0.0021646 Arg of perigee: 156.1210 deg Mean anomaly: 259.8994 deg Mean motion: 14.85504342 rev/day Decay rate: 5.55e-06 rev/day^2 Epoch rev: 6038 Checksum: 317
